Flag for Canada Weather past 2 weeks in Denare Beach, Saskatchewan, Canada

Now
61 °F

Passing clouds.


Feels Like: 61 °F
Forecast: 52 / 66 °F
Wind: 13 mph from Northwest

Location: The Pas

Current Time: Sep 4, 2015 at 1:02:18 AM

Latest Report: Sep 4, 2015 at 12:00 AM


Visibility: 15 mi

Pressure: 29.86 "Hg

Humidity: 72%

Dew point: 52 °F

Location of Denare BeachLocation

Historic Weather in Denare Beach — Graph

°F

Denare Beach temperature yesterday

Maximum temperature yesterday: 75 °F (at 3:00 PM)
Minimum temperature yesterday: 59 °F (at 7:00 AM)
Average temperature yesterday: 68 °F

Past Weeks' High & Low Weather Summary

 TemperatureHumidityPressure
High82 °F (Aug 28, 5:00 PM)100% (Aug 21, 6:00 AM)30.16 "Hg (Aug 21, 6:00 AM)
Low48 °F (Aug 21, 7:00 AM)34% (Sep 1, 6:00 PM)29.49 "Hg (Aug 31, 12:00 PM)
Average63 °F75%29.80 "Hg
* Reported Aug 19 11:00 PM — Sep 3 11:00 PM, Denare Beach, Weather by CustomWeather, © 2015

Note: Actual official high and low records may vary slightly from our data, if they occured in-between our weather recording intervals... More about our weather records

Advertising

Denare Beach weather history for previous 24 hours

 ConditionsComfort  
Time TempWeatherWind HumidityBarometerVisibility
11:00 PM
Thu, Sep 3
63 °FPassing clouds.15 mph68%29.86 "Hg15 mi
10:00 PM66 °FPassing clouds.16 mph60%29.84 "Hg15 mi
9:00 PM68 °FBroken clouds.8 mph60%29.82 "Hg15 mi
8:00 PM70 °FPartly sunny.7 mph53%29.80 "Hg15 mi
7:00 PM73 °FScattered clouds.10 mph44%29.78 "Hg15 mi
6:00 PM75 °FPassing clouds.9 mph41%29.78 "Hg15 mi
5:00 PM75 °FPassing clouds.13 mph41%29.77 "Hg15 mi
4:00 PM75 °FPassing clouds.12 mph44%29.76 "Hg15 mi
3:00 PM75 °FPassing clouds.16 mph47%29.75 "Hg15 mi
2:00 PM73 °FMostly cloudy.13 mph57%29.74 "Hg15 mi
1:00 PM72 °FMostly cloudy.14 mph61%29.74 "Hg15 mi
12:00 PM73 °FScattered clouds.16 mph57%29.72 "Hg15 mi
11:00 AM72 °FOvercast.8 mph61%29.69 "Hg15 mi
10:00 AM70 °FOvercast.5 mph69%29.69 "Hg15 mi
9:00 AM66 °FScattered clouds.12 mph83%29.68 "Hg15 mi
8:00 AM61 °FBroken clouds.13 mph94%29.71 "Hg15 mi
7:00 AM59 °FPartly cloudy.8 mph94%29.68 "Hg15 mi
6:00 AM63 °FPartly cloudy.7 mph83%29.63 "Hg15 mi
5:00 AM63 °FPassing clouds.3 mph83%29.66 "Hg15 mi
4:00 AM61 °FPassing clouds.7 mph88%29.65 "Hg15 mi
3:00 AM63 °FPassing clouds.10 mph83%29.63 "Hg15 mi
2:00 AM64 °FPassing clouds.10 mph73%29.64 "Hg15 mi
1:00 AM68 °FPassing clouds.10 mph60%29.64 "Hg15 mi
Weather by CustomWeather, © 2015

See weather overviewHow to use our weather pages